This is the latest recevied weather packets stored in our database for station/object DM3DP. If no packets are shown the sender has not sent any weather packets the latest 1 day(s).
| Time | Temp. | Humidity | Pressure | Rain* | Wind** | Luminosity | Snow |
|---|---|---|---|---|---|---|---|
| 1778078362 | 11.11° C | 99% | 1005.6 hPa | 0.25 mm | - | 39 W/m² | - |
| 1778075392 | 11.67° C | 99% | 1005.4 hPa | 0 mm | - | 115 W/m² | - |
| 1778075062 | 11.67° C | 99% | 1005.4 hPa | 0 mm | - | 116 W/m² | - |
| 1778070772 | 11.67° C | 99% | 1005 hPa | 0 mm | - | 66 W/m² | - |
| 1778070112 | 11.67° C | 99% | 1005 hPa | 0 mm | - | 65 W/m² | - |
| 1778069122 | 12.22° C | 99% | 1004.8 hPa | 0.25 mm | - | 120 W/m² | - |
| 1778068461 | 12.22° C | 99% | 1004.8 hPa | 0.25 mm | - | 92 W/m² | - |
| 1778067801 | 11.67° C | 99% | 1004.7 hPa | 0.25 mm | - | 113 W/m² | - |
| 1778065822 | 12.22° C | 99% | 1004.5 hPa | 0 mm | - | 132 W/m² | - |
| 1778065491 | 12.22° C | 99% | 1004.4 hPa | 0 mm | - | 110 W/m² | - |
| 1778064831 | 12.22° C | 99% | 1004.4 hPa | 0.25 mm | - | 122 W/m² | - |
| 1778064502 | 12.22° C | 99% | 1004.4 hPa | 0.25 mm | - | 94 W/m² | - |
| 1778062522 | 12.78° C | 99% | 1004.1 hPa | 0.25 mm | - | 66 W/m² | - |
| 1778061531 | 12.78° C | 99% | 1004 hPa | 0 mm | - | 68 W/m² | - |
| 1778060542 | 12.22° C | 99% | 1003.9 hPa | 0.25 mm | - | 93 W/m² | - |
| 1778059551 | 12.22° C | 99% | 1003.9 hPa | 0.25 mm | - | 63 W/m² | - |
| 1778058892 | 12.22° C | 99% | 1003.8 hPa | 0.25 mm | - | 85 W/m² | - |
| 1778058561 | 12.22° C | 99% | 1003.8 hPa | 0.25 mm | - | 85 W/m² | - |
| 1778057571 | 11.67° C | 99% | 1003.8 hPa | 0.51 mm | - | 63 W/m² | - |
| 1778056251 | 11.67° C | 99% | 1003.6 hPa | 0.25 mm | - | 54 W/m² | - |
| 1778054932 | 11.67° C | 99% | 1003.4 hPa | 0.25 mm | - | 47 W/m² | - |
| 1778053941 | 11.67° C | 99% | 1003.3 hPa | 0.25 mm | - | 34 W/m² | - |
| 1778053611 | 11.67° C | 99% | 1003.3 hPa | 0.25 mm | - | 37 W/m² | - |
| 1778052622 | 11.67° C | 99% | 1003.3 hPa | 0.25 mm | - | 33 W/m² | - |
| 1778052292 | 11.67° C | 99% | 1003.2 hPa | 0.25 mm | - | 39 W/m² | - |
* Rain latest hour (hover to see other rain measurements)
** Current wind speed in m/s (hover to see current wind gust speed)